This demonstration page uses our WeatherBlox Daily Observations layout. Learn more.

Left ArrowRight Arrow

39.12711, -84.51439

Hourly Observations for June 22, 2017

Temp ( °F °C ) Dew Point ( °F °C ) Humidity (%) Winds ( mph kmh ) Pressure ( in mb ) Visibility ( mi km ) Precip ( " mm )
12:53 am 00:53 Clear 74 23.3 68 20 82 82 SW 7 11 29.98 1015 10 16 0.00 0.00
1:53 am 01:53 Mostly Clear 73 22.8 68 20 84 84 SSW 6 9 29.99 1016 10 16 0.00 0.00
2:53 am 02:53 Clear 73 22.8 69 20.6 87 87 SSW 7 11 29.99 1016 10 16 0.00 0.00
3:53 am 03:53 Mostly Clear 72 22.2 68 20 87 87 S 6 9 29.99 1016 10 16 0.00 0.00
4:53 am 04:53 Clear 71 21.7 67 19.4 87 87 Calm 30.00 1016 10 16 0.00 0.00
5:53 am 05:53 Clear 70 21.1 68 20 93 93 Calm 29.99 1016 10 16 0.00 0.00
6:53 am 06:53 Sunny 70 21.1 68 20 93 93 Calm 30.00 1016 10 16 0.00 0.00
7:53 am 07:53 Sunny 72 22.2 69 20.6 91 91 Calm 30.00 1016 10 16 0.00 0.00
8:53 am 08:53 Sunny 75 23.9 70 21.1 84 84 S 7 11 30.00 1016 10 16 0.00 0.00
9:53 am 09:53 Sunny 78 25.6 71 21.7 79 79 SSW 12 19 30.01 1016 10 16 0.00 0.00
10:53 am 10:53 Sunny 79 26.1 72 22.2 79 79 SSW 8 13 30.02 1017 10 16 0.00 0.00
11:53 am 11:53 Sunny 79 26.1 72 22.2 79 79 S 9 15 30.01 1016 10 16 0.00 0.00
12:53 pm 12:53 Mostly Cloudy 82 27.8 73 22.8 74 74 SSW 10 17 29.99 1016 10 16 0.00 0.00
1:53 pm 13:53 Cloudy 82 27.8 72 22.2 72 72 SSW 16 26 29.98 1015 10 16 0.00 0.00
2:53 pm 14:53 Mostly Cloudy 83 28.3 71 21.7 67 67 S 17 28 29.96 1015 10 16 0.00 0.00
3:53 pm 15:53 Mostly Cloudy 82 27.8 71 21.7 69 69 S 18 30 29.94 1014 10 16 0.00 0.00
4:26 pm 16:26 Partly Cloudy 81 27.2 71 21.7 72 72 S 15 24 29.91 1013 10 16 0.00 0.00
4:53 pm 16:53 Mostly Cloudy 81 27.2 71 21.7 72 72 S 18 30 29.93 1014 10 16 0.00 0.00
5:53 pm 17:53 Mostly Cloudy 78 25.6 69 20.6 74 74 S 14 22 29.93 1014 10 16 0.00 0.00
6:53 pm 18:53 Cloudy with Light Rain 75 23.9 70 21.1 84 84 S 12 19 29.92 1013 10 16 0.00 0.03
7:53 pm 19:53 Mostly Cloudy with Light Rain 73 22.8 71 21.7 94 94 S 5 7 29.91 1013 10 16 0.04 1.02
8:53 pm 20:53 Cloudy with Light Rain 72 22.2 71 21.7 97 97 S 9 15 29.88 1012 10 16 0.01 0.25
9:41 pm 21:41 Cloudy with Heavy Rain 71 21.7 70 21.1 96 96 S 21 33 29.88 1012 3 4 0.10 2.54
9:53 pm 21:53 Cloudy with Light Rain 70 21.1 70 21.1 100 100 S 20 31 29.88 1012 3 5 0.16 4.06
10:43 pm 22:43 Cloudy with Rain 70 21.1 70 21.1 100 100 S 9 15 29.91 1013 5 8 0.03 0.76
10:53 pm 22:53 Cloudy with Light Rain 70 21.1 70 21.1 100 100 S 10 17 29.88 1012 7 11 0.04 1.02
11:46 pm 23:46 Cloudy with Heavy Rain 70 21 N/A N/A S 7 11 29.88 1012 3 4 0.07 1.78
11:53 pm 23:53 Cloudy with Light Rain 70 21 N/A N/A S 6 9 29.87 1012 3 5 0.07 1.78

Powered by AerisWeather